TimePDT,TemperatureF,Dew PointF,Humidity,Sea Level PressureIn,VisibilityMPH,Wind Direction,Wind SpeedMPH,Gust SpeedMPH,PrecipitationIn,Events,Conditions,WindDirDegrees,DateUTC
12:09 AM,61.0,36.0,39,29.91,7.0,West,11.5,31.1,N/A,,Mostly Cloudy,270,2014-04-01 07:09:00
12:19 AM,62.1,34.0,35,29.91,7.0,NNW,10.4,17.3,N/A,,Overcast,340,2014-04-01 07:19:00
12:48 AM,60.1,35.1,39,29.91,8.0,WSW,24.2,32.2,N/A,,Mostly Cloudy,240,2014-04-01 07:48:00
12:56 AM,60.1,37.0,42,29.94,5.0,WSW,31.1,41.4,N/A,,Haze,250,2014-04-01 07:56:00
1:06 AM,60.1,37.0,42,29.90,7.0,WSW,31.1,46.0,N/A,,Partly Cloudy,250,2014-04-01 08:06:00
1:18 AM,59.0,37.9,46,29.91,10.0,WSW,31.1,41.4,N/A,,Partly Cloudy,250,2014-04-01 08:18:00
1:56 AM,57.9,39.0,49,29.97,10.0,WSW,26.5,34.5,N/A,,Clear,240,2014-04-01 08:56:00
2:56 AM,57.9,37.9,47,29.96,10.0,SW,24.2,38.0,N/A,,Clear,230,2014-04-01 09:56:00
3:56 AM,55.9,39.0,53,29.96,10.0,WSW,15.0,-,N/A,,Clear,250,2014-04-01 10:56:00
4:56 AM,55.9,39.0,53,29.95,10.0,WSW,10.4,-,N/A,,Clear,240,2014-04-01 11:56:00
5:56 AM,55.9,39.9,55,29.95,10.0,SW,12.7,-,N/A,,Partly Cloudy,220,2014-04-01 12:56:00
6:56 AM,57.0,39.9,53,29.95,10.0,SW,13.8,-,N/A,,Partly Cloudy,220,2014-04-01 13:56:00
7:56 AM,61.0,43.0,52,29.97,10.0,WSW,16.1,23.0,N/A,,Partly Cloudy,240,2014-04-01 14:56:00
8:56 AM,64.9,43.0,45,29.98,10.0,WSW,19.6,-,N/A,,Scattered Clouds,250,2014-04-01 15:56:00
9:56 AM,68.0,44.1,42,29.99,10.0,SW,25.3,32.2,N/A,,Mostly Cloudy,230,2014-04-01 16:56:00
10:56 AM,70.0,44.1,39,29.99,10.0,WSW,21.9,27.6,N/A,,Mostly Cloudy,240,2014-04-01 17:56:00
11:56 AM,70.0,44.1,39,29.98,10.0,West,9.2,-,N/A,,Mostly Cloudy,260,2014-04-01 18:56:00
12:56 PM,70.0,42.1,36,29.97,10.0,SW,16.1,-,N/A,,Mostly Cloudy,230,2014-04-01 19:56:00
1:56 PM,71.1,37.9,30,29.95,10.0,SW,27.6,-,N/A,,Scattered Clouds,220,2014-04-01 20:56:00
2:56 PM,73.0,36.0,26,29.94,10.0,WSW,27.6,36.8,N/A,,Scattered Clouds,240,2014-04-01 21:56:00
3:56 PM,71.1,35.1,27,29.94,10.0,SW,28.8,34.5,N/A,,Partly Cloudy,230,2014-04-01 22:56:00
4:56 PM,70.0,34.0,27,29.92,10.0,SW,24.2,32.2,N/A,,Partly Cloudy,230,2014-04-01 23:56:00
5:56 PM,66.9,33.1,28,29.92,10.0,WSW,24.2,33.4,N/A,,Partly Cloudy,240,2014-04-02 00:56:00
6:56 PM,64.0,30.0,28,29.92,10.0,WSW,21.9,-,N/A,,Partly Cloudy,240,2014-04-02 01:56:00
7:56 PM,61.0,33.1,35,29.94,10.0,WSW,24.2,-,N/A,,Partly Cloudy,250,2014-04-02 02:56:00
8:56 PM,59.0,33.1,38,29.96,10.0,WSW,23.0,-,N/A,,Clear,240,2014-04-02 03:56:00
9:56 PM,57.9,32.0,37,29.97,10.0,WSW,23.0,28.8,N/A,,Clear,240,2014-04-02 04:56:00
10:56 PM,57.0,33.1,40,29.98,10.0,WSW,20.7,-,N/A,,Clear,250,2014-04-02 05:56:00
11:56 PM,55.9,34.0,44,29.97,10.0,WSW,18.4,-,N/A,,Clear,250,2014-04-02 06:56:00